Regional Weather Roundup
Issued by NWS

Home | Current Version | Previous Version | Text Only | Print | Product List | Glossary On
Versions: 1 2 3 4 5 6 7 8 9 10 11 12 13 14 15 16 17 18 19 20 21 22 23 24 25 26 27 28 29 30 31 32 33 34 35 36 37 38 39 40 41 42 43 44 45 46 47 48 49 50
000
ASUS43 KDTX 292310
RWRMI
MICHIGAN HOURLY REGIONAL WEATHER ROUNDUP
NATIONAL WEATHER SERVICE DETROIT/PONTIAC MI
600 PM EST THU JAN 29 2015

NOTE: "FAIR" INDICATES FEW OR NO CLOUDS BELOW 12,000 FEET WITH NO
SIGNIFICANT WEATHER AND/OR OBSTRUCTION TO VISIBILITY.

MIZ047>049-052>055-059>063-066>070-074>076-081>083-300000-
SOUTHEAST LOWER MICHIGAN

CITY           SKY/WX    TMP DP  RH WIND       PRES   REMARKS
ADRIAN         CLOUDY    33  27  78 N12       29.92R WCI  24
ALMA           CLOUDY    32  27  82 NW14G22   29.93R WCI  22
ANN ARBOR      CLOUDY    32  27  81 NW13      29.89R WCI  22
BAD AXE        CLOUDY    29  28  94 W6        29.84R WCI  23
CARO           CLOUDY    32  26  81 NW12      29.86R WCI  23
DETROIT CITY   CLOUDY    33  27  78 NW10      29.86R HAZE    WCI  25
DETROIT        LGT SNOW  32  27  81 NW10      29.89R WCI  24
FLINT          CLOUDY    32  27  81 NW15      29.89R WCI  22
GROSSE ILE     LGT SNOW  32  28  86 NW12G17   29.86R WCI  23
HILLSDALE      CLOUDY    32  28  85 NW14G20   29.91R WCI  22
HOWELL         CLOUDY    31  28  87 NW13      29.88R WCI  21

CITY           SKY/WX    TMP DP  RH WIND       PRES   REMARKS
JACKSON        CLOUDY    32  27  81 NW10G18   29.91R WCI  24
LAMBERTVILLE   CLOUDY    34  32  93 NW6       29.91R WCI  29
LANSING        CLOUDY    31  28  89 NW9       29.93R FOG     WCI  23
LAPEER         CLOUDY    30  27  87 NW6       29.85R WCI  24
MASON          CLOUDY    31  26  83 NW13      29.91R HAZE    WCI  21
MONROE         CLOUDY    34  30  86 NW10      29.88R WCI  26
MT. CLEMENS    MOCLDY    30  28  93 NW8       29.84R FOG     WCI  23
PONTIAC        FLURRIES  30  26  85 NW13      29.85R WCI  20
PORT HOPE        N/A     31  25  78 NW10G20   29.81R WCI  22
PORT HURON     LGT SNOW  28  27  93 NW9       29.85R WCI  20
TRI CITIES     CLOUDY    33  26  75 NW25      29.89R WCI  20
TROY           CLOUDY    34  28  80 NW6       29.89R HAZE    WCI  29
SAGINAW HB     CLOUDY    32  28  86 NW14      29.89R WCI  22
$$
MIZ043>046-050>051-056>058-064>065-071>073-077>080-300000-
SOUTHWEST LOWER MICHIGAN

CITY           SKY/WX    TMP DP  RH WIND       PRES   REMARKS
BATTLE CREEK   CLOUDY    33  28  81 NW9       29.96R WCI  25
BENTON HARBOR  CLOUDY    33  27  78 N10G22    30.04R WCI  25
BIG RAPIDS     CLOUDY    31  24  77 N13G22    29.95R WCI  21
COLDWATER      CLOUDY    32  30  94 NW10      29.96R FOG     WCI  23
FREMONT        CLOUDY    32  24  74 NW17G26   29.98R WCI  21
HOLLAND        CLOUDY    35  25  66 NW15G29   30.02R WCI  25
GRAND RAPIDS   FLURRIES  32  26  78 NW20G26   29.97R WCI  20
IONIA          CLOUDY    32  29  88 NW10G17   29.93R WCI  24
KALAMAZOO      CLOUDY    33  27  78 NW17      29.98R WCI  22
LUDINGTON      FLURRIES  33  28  83 N10G20    30.02R WCI  24
MARSHALL       CLOUDY    31  28  92 NW8       29.94R FOG     WCI  23
MOUNT PLEASANT CLOUDY    32  22  66 NW15G24   29.93R WCI  21
MUSKEGON       FLURRIES  34  25  69 NW17      30.02R WCI  23
SOUTH HAVEN    CLOUDY    35  27  72 NW20G29   30.02R WCI  24
$$
MIZ016>042-300000-
NORTHERN LOWER MICHIGAN

CITY           SKY/WX    TMP DP  RH WIND       PRES   REMARKS
ALPENA         CLOUDY    30  26  85 NW9G20    29.85R WCI  22
BEAVER ISLAND  LGT SNOW  23  19  83 NW13G24   29.98R WCI  11
BELLAIRE       FLURRIES  27  21  79 NW7G18    29.99R WCI  19
CADILLAC       FLURRIES  27  21  79 NW16G26   29.93R WCI  14
CHARLEVOIX     LGT SNOW  25  20  83 NW22G32   30.01R WCI  10
FRANKFORT      CLOUDY    28  22  79 N14G24    30.02R WCI  17
GAYLORD        LGT SNOW  24  21  88 NW10G28   29.88R FOG     WCI  14
GRAYLING       LGT SNOW  28  23  81 NW20G28   29.90R WCI  15
HARBOR SPRINGS CLOUDY    25  19  78 NW17G24   29.94R WCI  11
HOUGHTON LAKE  CLOUDY    27  20  75 NW16G29   29.89R WCI  15
MANISTEE       CLOUDY    30  21  69 N13G22    30.02R WCI  20
OSCODA         CLOUDY    30  28  93 NW8       29.83R WCI  23
PELLSTON       MIX PCPN  24  19  81 NW25G38   29.93R WCI   8
ROGERS CITY    CLOUDY    29  27  90 NW14G25   29.86R WCI  19
TRAVERSE CITY  FLURRIES  27  20  75 N24G32    29.99R WCI  12
$$
MIZ007>008-015-300000-
EASTERN UPPER MICHIGAN

CITY           SKY/WX    TMP DP  RH WIND       PRES   REMARKS
KINROSS        CLOUDY    23  21  93 NW21G35   29.85R WCI   8
MACKINAC ISLAN FLURRIES  25  20  83 NW16G30   29.90R WCI  12
NEWBERRY       LGT SNOW  19  16  90 NW17G31   29.95R VSB 3/4 WCI   4
S. S. MARIE    LGT SNOW  23  19  85 NW21G28   29.85R FOG     WCI   8
MUNISING         N/A     22  14  71 N29G41    30.06R WCI   4
$$
MIZ004>006-011>014-085-300000-
CENTRAL UPPER MICHIGAN

CITY           SKY/WX    TMP DP  RH WIND       PRES   REMARKS
MANISTIQUE     LGT SNOW  21  17  86 N18G30    30.01R WCI   6
ESCANABA       CLOUDY    21   9  58 NW16G31   30.09R WCI   7
MENOMINEE      CLOUDY    28  16  59 N18G30    30.08R WCI  16
SAWYER-GWINN   SNOW      16  12  86 N21G32    30.07R VSB 1/2 WCI  -2
$$
MIZ001>003-009>011-084-300000-
WESTERN UPPER MICHIGAN

CITY           SKY/WX    TMP DP  RH WIND       PRES   REMARKS
IRON MOUNTAIN  CLOUDY    20  11  68 NW16G29   30.10R WCI   6
HOUGHTON       CLOUDY    17   8  67 N16G28    30.16R WCI   2
COPPER HARBOR    N/A     19  12  74 NE32G41   30.17R WCI  -1
IRONWOOD       CLOUDY    19  12  73 NW15G22   30.19R WCI   5
$$

ABBREVIATIONS USED IN REMARKS
   TC - TEMPERATURE IN CELSIUS
  WCI - WIND CHILL INDEX
   HX - HEAT INDEX
  VSB - VISIBILITY




USA.gov is the U.S. government's official web portal to all federal, state and local government web resources and services.